Terug naar catalogus

CZ-4C DEB

ActiefLEO
NORAD 43404·DEBRIS·🇨🇳 China

Gelanceerd Nov 25, 2012 vanaf Jiuquan Satellite Launch Center

Loading…

Volgende Passages (komende 24 uur)

TLE

VersSource: Space-Track

Epoch: Sep 14, 2026, 05:40 UTC

1 43404U 12066G   26257.23665696 -.00000047  00000-0  10744-3 0  9996
2 43404  63.3569 135.4420 0176886 347.1823  12.4709 12.93184040604894

Volg CZ-4C DEB in realtime met AllMySat

Download on the App Store